Weather History for Ravenna, OH

Change the Weather History Date:

Wednesday, August 7, 2013

  Actual Average (KCAK) Record (KCAK)
Temperature  
Mean Temperature 68 °F 71 °F  
Max Temperature 76 °F 81 °F 100 °F (1918)
Min Temperature 59 °F 62 °F 46 °F (1903)
Degree Days  
Heating Degree Days 0 0  
Month to date heating degree days 0  
Since 1 June heating degree days 55  
Since 1 July heating degree days 6  
Cooling Degree Days 2 7  
Month to date cooling degree days 49  
Year to date cooling degree days 448  
Since 1 June cooling degree days 406  
Growing Degree Days 18 (Base 50)    
Moisture  
Dew Point 66 °F    
Average Humidity 92    
Maximum Humidity 100    
Minimum Humidity 72    
Precipitation  
Precipitation 0.41 in 0.12 in 0.82 in (1958)
Month to date precipitation 0.85  
Year to date precipitation 24.49  
Snow  
Snow 0.00 in 0.00 in - ()
Month to date snowfall 0.0  
Since 1 June snowfall 0.0  
Since 1 July snowfall 0.0  
Snow Depth -    
Sea Level Pressure  
Sea Level Pressure 29.97 in    
Wind  
Wind Speed 1 mph (South)    
Max Wind Speed 8 mph    
Max Gust Speed 20 mph    
Visibility 10 miles    
Events Rain    
T = Trace of Precipitation, MM = Missing Value Source: NWS Daily Summary

Daily Weather History Graph

Daily Weather History Graph

Search for Another Location

Airport:

Trip Planner

Search our weather history database for the weather conditions in past years. The results will help you decide how hot, cold, wet, or windy it might be!

Date:

Astronomy

Aug. 07, 2013 Rise Set
Actual Time 6:26 AM EDT 8:34 PM EDT
Civil Twilight 5:56 AM EDT 9:04 PM EDT
Nautical Twilight 5:18 AM EDT 9:41 PM EDT
Astronomical Twilight 4:37 AM EDT 10:22 PM EDT
Moon 7:14 AM EDT (8/7) 8:39 PM EDT (8/7)
Length of Visible Light 15h 08m
Length of Day
14h 07m
New Moon, 1% of the Moon is Illuminated
Aug 7
New Moon
Aug 14
First Quarter
Aug 20
Full
Aug 28
Last Quarter
Sep 5
New

Hourly Weather History & Observations

Time (EDT) Temp. Dew Point Humidity Pressure Visibility Wind Dir Wind Speed Gust Speed Precip Events Conditions
12:13 AM 61.0 °F 61.2 °F 100% 29.98 in 10.0 mi Calm Calm - N/A   Clear
12:33 AM 60.1 °F 60.3 °F 100% 29.99 in 10.0 mi Calm Calm - N/A   Clear
12:53 AM 59.9 °F 60.1 °F 100% 29.99 in 10.0 mi Calm Calm - N/A   Clear
1:14 AM 60.1 °F 60.3 °F 100% 29.99 in 10.0 mi Calm Calm - N/A   Clear
1:33 AM - - N/A% 29.99 in 10.0 mi Calm Calm - N/A   Clear
1:54 AM 60.8 °F 60.8 °F 100% 29.99 in 10.0 mi Calm Calm - N/A   Clear
2:14 AM - - N/A% 29.99 in 10.0 mi Calm Calm - N/A   Clear
2:33 AM 59.4 °F 59.5 °F 100% 29.99 in 10.0 mi Calm Calm - N/A   Clear
2:54 AM 59.0 °F 59.0 °F 100% 29.98 in 10.0 mi Calm Calm - N/A   Clear
3:13 AM 59.2 °F 59.4 °F 100% 29.99 in 10.0 mi Calm Calm - N/A   Clear
3:34 AM 59.0 °F 59.2 °F 100% 29.98 in 10.0 mi Calm Calm - N/A   Clear
3:53 AM 59.9 °F 60.1 °F 100% 29.98 in 10.0 mi ESE 3.5 mph - N/A   Clear
4:13 AM 60.8 °F 61.0 °F 100% 29.99 in 10.0 mi Calm Calm - N/A   Mostly Cloudy
4:33 AM 62.2 °F 62.6 °F 100% 29.98 in 10.0 mi Calm Calm - N/A   Overcast
4:54 AM 63.1 °F 62.2 °F 97% 29.98 in 10.0 mi Calm Calm - N/A   Overcast
5:13 AM 63.5 °F 62.1 °F 95% 29.98 in 10.0 mi Calm Calm - N/A   Overcast
5:34 AM 63.9 °F 61.7 °F 93% 29.97 in 10.0 mi SE 3.5 mph - N/A   Overcast
5:53 AM 63.7 °F 61.0 °F 91% 29.97 in 10.0 mi Calm Calm - N/A   Mostly Cloudy
6:13 AM 62.8 °F 61.9 °F 97% 29.97 in 10.0 mi Calm Calm - N/A   Scattered Clouds
6:33 AM 63.1 °F 61.9 °F 96% 29.96 in 10.0 mi Calm Calm - N/A   Scattered Clouds
6:54 AM 63.7 °F 61.7 °F 93% 29.95 in 10.0 mi ESE 3.5 mph - N/A   Scattered Clouds
7:14 AM 63.0 °F 62.8 °F 99% 29.96 in 10.0 mi SE 3.5 mph - N/A   Clear
7:33 AM 64.4 °F 61.5 °F 90% 29.97 in 10.0 mi Calm Calm - N/A   Clear
7:53 AM 62.8 °F 63.0 °F 100% 29.97 in 10.0 mi Calm Calm - N/A   Clear
8:14 AM 65.3 °F 64.8 °F 98% 29.97 in 10.0 mi Calm Calm - N/A   Scattered Clouds
8:33 AM 67.6 °F 63.5 °F 87% 29.98 in 10.0 mi Calm Calm - N/A   Mostly Cloudy
8:54 AM 68.4 °F 62.8 °F 82% 29.98 in 10.0 mi SSE 3.5 mph - N/A   Overcast
9:14 AM 68.9 °F 62.4 °F 80% 29.98 in 10.0 mi Calm Calm - N/A   Overcast
9:33 AM 69.6 °F 61.9 °F 76% 29.98 in 10.0 mi South 4.6 mph - N/A   Scattered Clouds
9:54 AM 70.5 °F 62.8 °F 76% 29.98 in 10.0 mi South 3.5 mph - N/A   Scattered Clouds
10:14 AM 70.9 °F 63.9 °F 78% 29.97 in 10.0 mi SE 3.5 mph - N/A   Mostly Cloudy
10:33 AM 73.8 °F 64.2 °F 72% 29.98 in 10.0 mi South 4.6 mph - N/A   Scattered Clouds
10:54 AM 74.5 °F 64.9 °F 72% 29.97 in 10.0 mi South 6.9 mph - N/A   Scattered Clouds
11:14 AM 73.8 °F 64.6 °F 73% 29.97 in 10.0 mi South 5.8 mph - N/A   Clear
11:33 AM 73.8 °F 65.8 °F 76% 29.97 in 10.0 mi SSW 3.5 mph - N/A   Clear
11:54 AM 73.0 °F 66.0 °F 79% 29.97 in 10.0 mi South 3.5 mph - N/A   Mostly Cloudy
12:14 PM 73.6 °F 66.7 °F 79% 29.96 in 10.0 mi SSW 5.8 mph - N/A   Overcast
12:33 PM 75.6 °F 67.5 °F 76% 29.96 in 10.0 mi South 4.6 mph - N/A   Overcast
12:54 PM 76.3 °F 68.0 °F 75% 29.96 in 10.0 mi SW 4.6 mph - N/A   Overcast
1:13 PM 76.1 °F 68.0 °F 76% 29.97 in 10.0 mi SW 6.9 mph - N/A   Overcast
1:33 PM 75.2 °F 68.0 °F 78% 29.98 in 10.0 mi SW 5.8 mph - N/A Rain Light Rain
1:53 PM 68.9 °F 63.3 °F 82% 29.98 in 1.8 mi SW 8.1 mph 19.6 mph 0.22 in Rain Heavy Rain
2:13 PM 67.8 °F 65.5 °F 92% 29.97 in 7.0 mi SW 4.6 mph - 0.04 in Rain Rain
2:33 PM 66.6 °F 66.7 °F 100% 29.98 in 10.0 mi Calm Calm - 0.04 in Rain Light Rain
2:54 PM 67.3 °F 66.9 °F 99% 30.00 in 10.0 mi WNW 4.6 mph - 0.05 in   Light Drizzle
3:13 PM 66.6 °F 66.7 °F 100% 29.98 in 5.0 mi Calm Calm - 0.04 in Rain Rain
3:33 PM 66.2 °F 66.2 °F 100% 30.00 in 7.0 mi South 5.8 mph - 0.09 in Rain Rain
3:53 PM 66.2 °F 66.2 °F 100% 29.96 in 7.0 mi Calm Calm - 0.12 in Rain Light Rain
4:13 PM 66.2 °F 66.4 °F 100% 29.95 in 7.0 mi Calm Calm - 0.02 in Rain Light Rain
4:33 PM 69.6 °F 68.9 °F 98% 29.93 in 10.0 mi Calm Calm - 0.02 in   Scattered Clouds
4:54 PM 72.5 °F 68.0 °F 86% 29.93 in 10.0 mi SSW 4.6 mph - 0.02 in   Clear
5:13 PM 72.9 °F 68.4 °F 86% 29.92 in 10.0 mi Calm Calm - N/A   Clear
5:33 PM 73.6 °F 68.9 °F 85% 29.92 in 10.0 mi Calm Calm - N/A   Clear
5:54 PM 74.3 °F 69.6 °F 85% 29.92 in 10.0 mi Calm Calm - N/A   Clear
6:13 PM 74.8 °F 69.6 °F 84% 29.92 in 10.0 mi South 3.5 mph - N/A   Clear
6:33 PM 74.5 °F 69.6 °F 85% 29.92 in 10.0 mi Calm Calm - N/A   Clear
6:53 PM 74.1 °F 70.3 °F 88% 29.93 in 10.0 mi Calm Calm - N/A   Clear
7:13 PM 74.3 °F 69.8 °F 86% 29.94 in 10.0 mi South 3.5 mph - N/A   Clear
7:33 PM 73.4 °F 71.2 °F 93% 29.95 in 10.0 mi Calm Calm - N/A   Clear
7:53 PM 73.0 °F 71.6 °F 95% 29.95 in 10.0 mi Calm Calm - N/A   Scattered Clouds
8:13 PM 72.5 °F 71.1 °F 95% 29.95 in 10.0 mi Calm Calm - N/A   Scattered Clouds
8:33 PM 72.0 °F 70.7 °F 96% 29.95 in 10.0 mi Calm Calm - N/A   Scattered Clouds
8:53 PM 71.6 °F 70.7 °F 97% 29.95 in 10.0 mi Calm Calm - N/A   Clear
9:13 PM 70.5 °F 70.5 °F 100% 29.95 in 10.0 mi Calm Calm - N/A   Clear
9:33 PM 70.7 °F 70.7 °F 100% 29.96 in 10.0 mi Calm Calm - N/A   Clear
9:54 PM 70.2 °F 70.3 °F 100% 29.96 in 10.0 mi Calm Calm - N/A   Scattered Clouds
10:13 PM 69.8 °F 70.0 °F 100% 29.96 in 10.0 mi Calm Calm - N/A   Scattered Clouds
10:33 PM 69.8 °F 69.8 °F 100% 29.96 in 10.0 mi Calm Calm - N/A   Scattered Clouds
10:54 PM 69.6 °F 69.8 °F 100% 29.97 in 10.0 mi Calm Calm - N/A   Clear
11:13 PM 69.8 °F 70.0 °F 100% 29.97 in 10.0 mi Calm Calm - N/A   Mostly Cloudy
11:33 PM 70.2 °F 70.3 °F 100% 29.98 in 10.0 mi Calm Calm - N/A   Overcast
11:53 PM 70.2 °F 70.3 °F 100% 29.97 in 10.0 mi Calm Calm - N/A   Overcast